Regional Weather Roundup
Issued by NWS

Home | Current Version | Previous Version | Text Only | Print | Product List | Glossary On
Versions: 1 2 3 4 5 6 7 8 9 10 11 12 13 14 15 16 17 18 19 20 21 22 23 24 25 26 27 28 29 30 31 32 33 34 35 36 37 38 39 40 41 42 43 44 45 46 47 48 49 50
000
ASUS45 KSLC 200010
RWRUT

UTAH REGIONAL WEATHER ROUNDUP
NATIONAL WEATHER SERVICE SALT LAKE CITY UT
500 PM MST THU JAN 19 2017

UTZ001>011-023>025-200100-

NORTHERN UTAH

CITY           SKY/WX    TMP DP  RH WIND       PRES   REMARKS
BRIGHAM CITY     N/A     30  28  91 CALM      29.75S VSB 1/2
DUGWAY         LGT SNOW  34  33  95 CALM      29.74S
HILL AFB       SNOW      30  30  97 NW5       29.72S VSB 1/4 WCI  26
LOGAN          FOG       26  25  96 SW5       29.74R VSB 3/4 WCI  20
OGDEN          SNOW      29  28  96 CALM      29.73S VSB 1/2
SALT LAKE CITY LGT SNOW  30  29  96 W6        29.73S VSB 1   WCI  24
TOOELE VALLEY  LGT SNOW  30  30 100 CALM      29.74S VSB 1
WENDOVER       CLOUDY    25  21  86 CALM      29.75S
HEBER CITY     LGT SNOW  32  30  93 CALM      29.68S
WEST JORDAN    CLOUDY    33  33 100 N5        29.73S VSB 1   WCI  28

$$

UTZ011>015-024>027-200100-

CENTRAL/NORTHEAST UTAH

CITY           SKY/WX    TMP DP  RH WIND       PRES   REMARKS
PROVO AIRPORT  LGT RAIN  34  30  86 CALM      29.74S FOG
MOAB/CANYONLAN LGT SNOW  31  31 100 NW5       29.73F FOG     WCI  26
DELTA          CLOUDY    32  32 100 SE5       29.72S WCI  27
PRICE          CLOUDY    28  27  96 CALM      29.71F FOG
RICHFIELD      CLOUDY    37  37 100 SW8       29.71S WCI  31
ROOSEVELT      LGT SNOW  18  14  86 CALM      29.81F
VERNAL         LGT SNOW  17  13  84 CALM      29.78F FOG

$$

UTZ013>016-019>022-027-200100-

SOUTHERN UTAH

CITY           SKY/WX    TMP DP  RH WIND       PRES   REMARKS
BRYCE CANYON   LGT SNOW  29  27  92 SE12      29.71S VSB 1   WCI  19
CEDAR CITY     LGT SNOW  33  31  92 SW6       29.70S FOG     WCI  28
MILFORD        LGT RAIN  35  33  92 S12       29.70S WCI  27
ST GEORGE      CLOUDY    43  37  81 NW3       29.79R
HANKSVILLE     CLOUDY    32  32 100 MISG      29.75F
KANAB          FOG       34  32  93 S5        29.81S VSB 1   WCI  30
BLANDING       CLOUDY    31  31 100 CALM      29.84F

$$

REGIONAL REPORTS     COLORADO/ARIZONA

CITY           SKY/WX    TMP DP  RH WIND       PRES   REMARKS
CRAIG, CO      CLOUDY    28  20  71 CALM      29.71F
GRAND JUNCTION CLOUDY    32  32 100 CALM      29.75S FOG
RIFLE, CO      LGT SNOW  34  28  79 SE6       29.74R WCI  29
MONTROSE, CO   CLOUDY    38  26  62 NE5       29.76R WCI  34
CORTEZ, CO     LGT SNOW  33  33 100 SW3       29.79F FOG
COLORADO CITY  LGT SNOW  34  34 100 E6        29.79S WCI  29
PAGE, AZ       LGT RAIN  42  31  64 CALM      29.74F
GRAND CANYON   SNOW      32  32 100 SW24G30   29.79S VSB 1/4 WCI  19
KINGMAN, AZ    MOCLDY    43  35  73 SW18      29.81F
FLAGSTAFF, AZ  SNOW      29  28  96 SW14      29.81S VSB 1/4 WCI  18

$$

REGIONAL REPORTS    NEVADA/IDAHO/WYOMING

CITY           SKY/WX    TMP DP  RH WIND       PRES   REMARKS
LAS VEGAS, NV  MOCLDY    55  34  45 SW8       29.72F
ELY, NY        CLOUDY    31  26  82 NE3       29.70S
ELKO, NV       CLOUDY    36  28  73 SW8       29.69R WCI  30
POCATELLO, ID  CLOUDY    35  30  82 S12       29.69R WCI  27
BURLEY, ID     CLOUDY    37  30  75 S9        29.66R WCI  30
FORT BRIDGER,  LGT SNOW  26  26 100 SW8       29.69S WCI  18
EVANSTON, WY   SNOW      28  25  88 SW12      29.67S VSB 1/2 WCI  18
ROCK SPRINGS,  CLOUDY    15  12  88 CALM      29.67R
KEMMERER, WY   LGT SNOW  25  23  93 SW7       29.66S WCI  17

$$



USA.gov is the U.S. government's official web portal to all federal, state and local government web resources and services.